Tracking 31027 objects as of 19-Jul-2025
HD Live streaming from Space Station
objects crossing your sky now

STARLINK-1234

Track STARLINK-1234 now!
10-day predictions
STARLINK-1234 is classified as:


NORAD ID: 45190
Int'l Code: 2020-012N
Perigee: 553.5 km
Apogee: 555.3 km
Inclination: 53.1 °
Period: 95.6 minutes
Semi major axis: 6925 km
RCS: Unknown
Launch date: February 17, 2020
Source: United States (US)
Launch site: AIR FORCE EASTERN TEST RANGE (AFETR)
Your satellite tracking list
NOAA 16 DEB
Track 1 satellite(s)




NASA's NSSDC Master Catalog

Two Line Element Set (TLE):
1 45190U 20012N   25199.73441863  .00000764  00000-0  70208-4 0  9994
2 45190  53.0567 336.8833 0001280  88.3275 271.7860 15.06395777300032
Source of the keplerian elements: AFSPC